Location: Unspecified
(39.4670°N, 0.0000°E)
Time: 03:03:26
(UTC+00:00)

deb Agena D - Visible Passes

Search period start: 04 April 2026 00:00
Search period end: 14 April 2026 00:00
Orbit: 775 x 938 km, 99.8° (Epoch: 28 March)

Date Brightness Start Highest point End Pass type
(mag) Time Alt. Az. Time Alt. Az. Time Alt. Az.
4 Apr ? 00:54:56 16° NNW 00:54:56 16° NNW 00:56:02 10° NNW visible
5 Apr ? 00:44:24 18° N 00:44:24 18° N 00:45:47 10° N visible
6 Apr ? 00:33:53 19° N 00:33:53 19° N 00:35:29 10° N visible
7 Apr ? 00:23:22 20° N 00:23:22 20° N 00:25:09 10° N visible
8 Apr ? 00:12:50 20° NNE 00:12:50 20° NNE 00:14:47 10° N visible
8 Apr ? 01:54:57 12° NW 01:54:57 12° NW 01:55:18 10° NW visible
9 Apr ? 00:02:19 19° NNE 00:02:19 19° NNE 00:04:21 10° N visible
9 Apr ? 01:44:25 14° NW 01:44:25 14° NW 01:45:17 10° NNW visible
9 Apr ? 23:51:48 18° NNE 23:51:48 18° NNE 23:53:52 10° N visible
10 Apr ? 01:33:54 17° NNW 01:33:54 17° NNW 01:35:13 10° NNW visible
10 Apr ? 23:41:16 17° NNE 23:41:16 17° NNE 23:43:19 10° NNE visible
11 Apr ? 01:23:22 20° NNW 01:23:22 20° NNW 01:25:05 10° NNW visible
11 Apr ? 23:30:45 15° NE 23:30:45 15° NE 23:32:39 10° NNE visible
12 Apr ? 01:12:51 23° NNW 01:12:51 23° NNW 01:14:55 10° NNW visible
12 Apr ? 23:20:13 13° NE 23:20:13 13° NE 23:21:50 10° NNE visible
13 Apr ? 01:02:19 26° NNW 01:02:19 26° NNW 01:04:41 10° NNW visible
13 Apr ? 23:09:41 11° NE 23:09:41 11° NE 23:10:36 10° NE visible
